HAIYANG-2A

Last updated on Mon Jun 22 2026 00:02:51 GMT+0000 (Coordinated Universal Time)

1 37781U 11043A 26172.47922443 .00000225 00000+0 28474-3 0 9994 2 37781 99.3397 175.0606 0005810 82.6456 277.5353 13.74333314747246
UTC large
Height (km)
Speed (km/s)
/
Latitude / Longitude
Inclination (degrees)
Orbital Period (minutes)
Azimuth
Elevation
Range (km)
Doppler Factor

Next 0 passes for location: London (51.5072 / 0.1276)

No passes found over London.
HAIYANG-2A